Weather in Salekhard

Russia / Yamalo-Nenets Autonomous Okrug     66°31′47″N   66°36′51″E
temp.,
°C
wind,
m/s
gust,
m/s
humid.,
%
clouds,
%
prec.,
mm/h
press.,
hPa
HPBL,
m
27 february, sat
sat2723:00−26ssw119969 0.0 102120
02:00−27ssw1210024 0.0 102120
05:00−27ssw1210031 0.0 102119
08:00−28sw1210033 0.0 102119
11:00−25ssw229733 0.0 102227
14:00−23sw22966 0.0 102262
17:00−25ssw229810 0.0 102220
20:00−26sw2210074 0.0 102120
28 february, sun
sun2823:00−27sw2210087 0.0 102119
02:00−27ssw23100100 0.0 102019
05:00−28ssw23100100 0.1 102019
08:00−29ssw23100100 0.0 102019
11:00−27ssw3599100 0.0 1019135
14:00−25ssw369693 0.0 1020252
17:00−27sw339786 0.0 102026
20:00−28sw339897 0.0 101923
1 march, mon
mon123:00−29sw339898 0.0 101922
02:00−29sw339998 0.0 101827
05:00−28sw339899 0.1 101748
08:00−29sw44100100 0.0 101662
11:00−27sw489899 0.1 1015284
14:00−24ssw589696 0.0 1013382
17:00−25sw469998 0.0 101185
20:00−25ssw3499100 0.0 100968
2 march, tue
tue223:00−24ssw3799100 0.1 1007151
02:00−22s51097100 0.1 1005298
05:00−19s61196100 0.2 1003399
08:00−18s71196100 0.5 1002422
11:00−17s71196100 1.3 1002443
14:00−16ssw71095100 0.6 1002487
17:00−16ssw61095100 1.2 1002511
20:00−15ssw51195100 0.6 1001511
3 march, wed
wed323:00−14s61095100 1.1 1001499
02:00−15s61195100 0.4 1001415
05:00−15s61095100 0.8 1001410
08:00−15s5995100 0.5 1001403
11:00−15s5994100 0.9 1001472
14:00−14s5894100 0.4 1001533
17:00−14s4795100 0.8 1001368
20:00−14s3896100 0.4 1001317